This demonstration page uses our WeatherBlox Daily Observations layout. Learn more.

Left ArrowRight Arrow

44.8408, -93.29828

Hourly Observations for January 27, 2022

Temp ( °F °C ) Dew Point ( °F °C ) Humidity (%) Winds ( mph kmh ) Pressure ( in mb ) Visibility ( mi km ) Precip ( " mm )
12:14 am 00:14 Cloudy with Light Snow 29 -1.7 21 -6.1 72 72 SW 9 15 29.88 1012 8 13 0.00 0.00
12:32 am 00:32 Cloudy with Light Snow 29 -1.7 22 -5.6 75 75 WSW 8 13 29.87 1012 8 13 0.00 0.00
12:42 am 00:42 Cloudy with Light Snow 29 -1.7 23 -5 78 78 WSW 9 15 29.87 1012 8 13 0.00 0.00
12:46 am 00:46 Cloudy 29 -1.7 23 -5 78 78 WSW 9 15 29.87 1012 8 13 0.00 0.00
12:53 am 00:53 Cloudy 29 -1.7 23 -5 78 78 WSW 10 17 29.86 1011 8 13 0.00 0.00
1:07 am 01:07 Cloudy 29 -1.7 24 -4.4 82 82 WSW 8 13 29.88 1012 10 16 0.01 0.25
1:30 am 01:30 Cloudy 30 -1.1 24 -4.4 79 79 WSW 8 13 29.88 1012 10 16 0.01 0.25
1:49 am 01:49 Cloudy 30 -1 25 -4 80 80 WSW 8 13 29.89 1012 10 16 0.01 0.25
1:53 am 01:53 Cloudy 30 -1.1 24 -4.4 79 79 WSW 8 13 29.87 1012 10 16 0.01 0.25
2:53 am 02:53 Cloudy 32 0 26 -3.3 79 79 W 9 15 29.91 1013 10 16 0.00 0.00
3:53 am 03:53 Cloudy 32 0 23 -5 69 69 NW 12 19 29.94 1014 10 16 0.00 0.00
4:53 am 04:53 Cloudy 30 -1.1 22 -5.6 72 72 WNW 14 22 29.97 1015 10 16 0.00 0.00
5:53 am 05:53 Cloudy 30 -1.1 21 -6.1 69 69 NW 13 20 30.00 1016 10 16 0.00 0.00
6:53 am 06:53 Cloudy 29 -1.7 21 -6.1 72 72 W 9 15 30.03 1017 10 16 0.00 0.00
7:53 am 07:53 Cloudy 29 -1.7 22 -5.6 75 75 WNW 10 17 30.06 1018 10 16 0.00 0.00
8:20 am 08:20 Cloudy with Light Snow 29 -1.7 23 -5 78 78 WNW 10 17 30.09 1019 9 14 0.00 0.00
8:53 am 08:53 Cloudy with Light Snow 29 -1.7 23 -5 78 78 NW 13 20 30.09 1019 9 14 0.00 0.00
9:06 am 09:06 Cloudy 29 -1.7 23 -5 78 78 NW 13 20 30.11 1020 9 14 0.01 0.25
9:36 am 09:36 Cloudy 29 -1.7 20 -6.7 69 69 NNW 16 26 30.13 1020 10 16 0.01 0.25
9:53 am 09:53 Cloudy 29 -1.7 20 -6.7 69 69 NNW 10 17 30.13 1020 10 16 0.01 0.25
10:37 am 10:37 Cloudy 28 -2.2 17 -8.3 63 63 NNW 14 22 30.18 1022 10 16 0.00 0.00
10:53 am 10:53 Mostly Cloudy 28 -2.2 16 -8.9 60 60 NNW 17 28 30.17 1022 10 16 0.00 0.00
11:53 am 11:53 Mostly Cloudy 28 -2.2 12 -11.1 51 51 NNW 20 31 30.19 1022 10 16 0.00 0.00
12:31 pm 12:31 Cloudy 27 -2.8 15 -9.4 61 61 N 13 20 30.23 1024 10 16 0.00 0.00
12:53 pm 12:53 Mostly Cloudy 26 -3.3 14 -10 60 60 N 14 22 30.21 1023 10 16 0.00 0.00
1:53 pm 13:53 Mostly Cloudy 24 -4.4 9 -12.8 52 52 N 18 30 30.24 1024 10 16 0.00 0.00
2:53 pm 14:53 Mostly Sunny 22 -5.6 6 -14.4 50 50 NNW 16 26 30.27 1025 10 16 0.00 0.00
3:53 pm 15:53 Mostly Sunny 21 -6.1 4 -15.6 47 47 NNW 15 24 30.29 1026 10 16 0.00 0.00
4:53 pm 16:53 Mostly Sunny 19 -7.2 3 -16.1 49 49 NNW 13 20 30.32 1027 10 16 0.00 0.00
5:53 pm 17:53 Mostly Clear 16 -8.9 0 -17.8 49 49 N 14 22 30.37 1028 10 16 0.00 0.00
6:53 pm 18:53 Mostly Clear 14 -10 -4 -20 44 44 N 13 20 30.40 1030 10 16 0.00 0.00
7:53 pm 19:53 Mostly Clear 12 -11.1 -5 -20.6 46 46 N 12 19 30.43 1031 10 16 0.00 0.00
8:53 pm 20:53 Clear 11 -11.7 -6 -21.1 46 46 N 10 17 30.45 1031 10 16 0.00 0.00
9:53 pm 21:53 Mostly Clear 9 -12.8 -6 -21.1 50 50 N 10 17 30.46 1031 10 16 0.00 0.00
10:53 pm 22:53 Partly Cloudy 7 -13.9 -6 -21.1 55 55 N 8 13 30.47 1032 10 16 0.00 0.00
11:53 pm 23:53 Mostly Clear 7 -13.9 -6 -21.1 55 55 NNW 9 15 30.49 1032 10 16 0.00 0.00

Powered by AerisWeather